Location: Brno
(49.2000°N, 16.6330°E)
Time: 20:00:53
(UTC+02:00)

X-37B - Pass Details

Date: 23 June 2021
Orbit: 383 x 392 km, 45.0° (Epoch: 01 July)

Event Time Altitude Azimuth Distance (km) Brightness Sun altitude
Exits shadow 02:49:35 10° 149° (SSE) 1,399 3.1 -13.1°
Drops below altitude 10° 02:49:35 10° 149° (SSE) 1,402 3.1 -13.1°
Sets 02:51:57 0° 133° (SE) 2,254 4.3 -12.9°
